Asheville, NC

6:29 PM EDT on September 23, 2017 (GMT -0400)
Asheville Regional

Weather History for KAVL - January, 2014

Change the Weather History Date:

Thursday, January 16, 2014

  Actual Average Record
Temperature  
Mean Temperature 31 °F 37 °F  
Max Temperature 42 °F 47 °F 73 °F (1974)
Min Temperature 20 °F 26 °F -9 °F (1893)
Degree Days  
Heating Degree Days 34 28  
Month to date heating degree days 504 448  
Since 1 July heating degree days 2084 2109  
Cooling Degree Days 0 0  
Month to date cooling degree days 0 0  
Year to date cooling degree days 0 0  
Moisture  
Dew Point 13 °F    
Average Humidity 51    
Maximum Humidity 77    
Minimum Humidity 25    
Precipitation  
Precipitation 0.00 in 0.12 in 1.57 in (1924)
Month to date precipitation 2.19 1.84  
Year to date precipitation 2.19 1.84  
Snow  
Snow 0.00 in 0.20 in 7.00 in (1891)
Month to date snowfall 0.2 2.1  
Since 1 July snowfall 0.4 3.1  
Snow Depth 0.00 in    
Sea Level Pressure  
Sea Level Pressure 29.97 in    
Wind  
Wind Speed 6 mph (NW)    
Max Wind Speed 18 mph    
Max Gust Speed 25 mph    
Visibility 10 miles    
Events      
T = Trace of Precipitation, MM = Missing Value Source: NWS Daily Summary

Daily Weather History Graph

Daily Weather History Graph

Search for Another Location

Airport or City:

Trip Planner

Search our weather history database for the weather conditions in past years. The results will help you decide how hot, cold, wet, or windy it might be!

Date:

Astronomy

Jan. 16, 2014 Rise Set
Actual Time 7:38 AM EST 5:41 PM EST
Civil Twilight 7:10 AM EST 6:09 PM EST
Nautical Twilight 6:39 AM EST 6:40 PM EST
Astronomical Twilight 6:09 AM EST 7:11 PM EST
Moon 6:28 PM EST (1/16) 7:34 AM EST (1/16)
Length of Visible Light 10h 58m
Length of Day
10h 03m
Full, 100% of the Moon is Illuminated
Jan 16
Full
Jan 24
Last Quarter
Jan 30
New
Feb 6
First Quarter
Feb 14
Full

Hourly Weather History & Observations

Time (EST) Temp. Windchill Dew Point Humidity Pressure Visibility Wind Dir Wind Speed Gust Speed Precip Events Conditions
12:54 AM 26.1 °F 15.0 °F 16.0 °F 66% 29.97 in 10.0 mi North 12.7 mph 23.0 mph N/A   Clear
1:54 AM 25.0 °F 13.6 °F 15.1 °F 66% 29.97 in 10.0 mi North 12.7 mph - N/A   Clear
2:54 AM 24.1 °F 13.1 °F 15.1 °F 69% 29.96 in 10.0 mi NNW 11.5 mph - N/A   Clear
3:54 AM 23.0 °F 11.7 °F 15.1 °F 72% 29.98 in 10.0 mi NNW 11.5 mph - N/A   Clear
4:54 AM 21.9 °F 12.5 °F 14.0 °F 72% 29.99 in 10.0 mi NNW 8.1 mph - N/A   Clear
5:54 AM 21.0 °F 12.4 °F 14.0 °F 74% 30.00 in 10.0 mi North 6.9 mph - N/A   Clear
6:54 AM 19.9 °F 10.1 °F 14.0 °F 78% 30.01 in 10.0 mi NNW 8.1 mph - N/A   Clear
7:54 AM 19.9 °F 11.1 °F 14.0 °F 78% 30.03 in 10.0 mi North 6.9 mph - N/A   Clear
8:54 AM 23.0 °F 13.9 °F 15.1 °F 72% 30.04 in 10.0 mi NNW 8.1 mph - N/A   Clear
9:54 AM 26.1 °F 19.4 °F 14.0 °F 60% 30.04 in 10.0 mi NNW 5.8 mph - N/A   Clear
10:54 AM 30.0 °F 24.1 °F 15.1 °F 54% 30.03 in 10.0 mi North 5.8 mph - N/A   Clear
11:54 AM 33.1 °F - 15.1 °F 48% 29.99 in 10.0 mi Calm Calm - N/A   Clear
12:54 PM 36.0 °F - 10.0 °F 34% 29.94 in 10.0 mi Calm Calm - N/A   Clear
1:54 PM 39.0 °F - 10.0 °F 30% 29.90 in 10.0 mi Calm Calm - N/A   Clear
2:54 PM 39.9 °F - 10.9 °F 31% 29.88 in 10.0 mi Calm Calm - N/A   Clear
3:54 PM 41.0 °F 35.8 °F 9.0 °F 27% 29.90 in 10.0 mi South 8.1 mph - N/A   Partly Cloudy
4:54 PM 41.0 °F 35.8 °F 14.0 °F 33% 29.90 in 10.0 mi SSE 8.1 mph - N/A   Partly Cloudy
5:54 PM 36.0 °F 29.6 °F 15.1 °F 43% 29.94 in 10.0 mi South 8.1 mph - N/A   Clear
6:54 PM 34.0 °F 27.2 °F 12.9 °F 42% 29.95 in 10.0 mi South 8.1 mph - N/A   Clear
7:54 PM 32.0 °F 23.6 °F 14.0 °F 48% 29.96 in 10.0 mi South 10.4 mph - N/A   Clear
8:54 PM 30.0 °F 23.2 °F 15.1 °F 54% 29.97 in 10.0 mi South 6.9 mph - N/A   Clear
9:54 PM 32.0 °F 27.5 °F 12.0 °F 44% 29.98 in 10.0 mi South 4.6 mph - N/A   Clear
10:54 PM 32.0 °F - 12.0 °F 44% 29.98 in 10.0 mi Calm Calm - N/A   Clear
11:54 PM 30.0 °F - 12.0 °F 47% 29.97 in 10.0 mi Calm Calm - N/A   Clear